Regional Weather Roundup
Issued by NWS Sterling, VA

Home | Current Version | Previous Version | Text Only | Print | Product List | Glossary On
Versions: 1 2 3 4 5 6 7 8 9 10 11 12 13 14 15 16 17 18 19 20 21 22 23 24 25 26 27
000
ASUS41 KLWX 232211
RWRLWX

REGIONAL WEATHER ROUNDUP
NATIONAL WEATHER SERVICE BALTIMORE MD/WASHINGTON DC
500 PM EST FRI FEB 23 2018

Note: "FAIR" indicates few or no clouds below 12,000 feet
with no significant weather and/or obstructions to visibility.
 TC=TEMPERATURE CELSIUS

 * =Non NWS site. Station does not report precipitation (e.g. rain,
    snow, etc.), thunder, or fog.

DCZ001-MDZ009-015-VAZ040>042-051-053>054-232300-
WASHINGTON METRO

CITY           SKY/WX    TMP DP  RH WIND       PRES   REMARKS
WASHINGTON NAT CLOUDY    47  44  90 S6        30.36F
DULLES         CLOUDY    45  43  93 SE5       30.34F
ANDREWS AFB    CLOUDY    45  42  92 CALM      30.35F
FT BELVOIR     CLOUDY    46  43  87 CALM      30.36F
QUANTICO       CLOUDY    48  45  89 S7        30.37S
COLLEGE PARK*  CLOUDY    45  42  86 CALM      30.35S
LEESBURG*      CLOUDY    41  41 100 S7        30.35F
MANASSAS*      CLOUDY    47  44  90 S5        30.35F
GAITHERSBURG*  CLOUDY    44  41  89 S6        30.35S

$$

MDZ006>007-011-014-232300-
BALTIMORE METRO

CITY           SKY/WX    TMP DP  RH WIND       PRES   REMARKS
BWI AIRPORT    CLOUDY    43  43 100 CALM      30.36F
MD SCIENCE CTR   N/A     45  42  89 MISG      30.38F
MARTIN STATE   CLOUDY    45  45 100 CALM      30.39F FOG
ANNAPOLIS      CLOUDY    45  44  97 SE6       30.36F
FORT MEADE*    CLOUDY    43  41  93 CALM      30.39R

$$

MDZ012-015-019>023-232300-
MARYLAND EASTERN SHORE

CITY           SKY/WX    TMP DP  RH WIND       PRES   REMARKS
OCEAN CITY     FOG       45  45 100 E3        30.36F VSB 1/2
SALISBURY      CLOUDY    47  47 100 S3        30.35F
BAY BRIDGE AP* DRIZZLE   43  41  93 CALM      30.36F FOG
CAMBRIDGE*     CLOUDY    46  46 100 S3        30.35F
EASTON*        CLOUDY    46  45  93 CALM      30.39F

$$

MDZ017>025-232300-
SOUTHERN MARYLAND

CITY           SKY/WX    TMP DP  RH WIND       PRES   REMARKS
PATUXENT RIVER MOCLDY    45  44  97 SE8       30.34F
ST INIGOES     CLOUDY    46  44  93 S7        30.35
LEONARDTOWN*   CLOUDY    45  43  93 S6        30.37F

$$

MDZ003>005-232300-
NORTH CENTRAL MARYLAND

CITY           SKY/WX    TMP DP  RH WIND       PRES   REMARKS
FREDERICK*     CLOUDY    45  45 100 CALM      30.37F
HAGERSTOWN APT CLOUDY    44  42  93 S7        30.31F FOG
WESTMINSTER*   CLOUDY    43  43 100 SE3       30.33F FOG

$$

MDZ501>502-232300-
WESTERN MARYLAND

CITY           SKY/WX    TMP DP  RH WIND       PRES   REMARKS
OAKLAND*       PTSUNNY   59  55  88 SW9       30.24S
CUMBERLAND*    CLOUDY    45  43  93 CALM      30.32F

$$

VAZ025>031-232300-
SHENANDOAH VALLEY

CITY           SKY/WX    TMP DP  RH WIND       PRES   REMARKS
WINCHESTER*    CLOUDY    45  41  87 E3        30.32S
FRONT ROYAL*   FAIR      48  45  87 NE5       30.28F
LURAY*         FAIR      59  50  72 CALM      30.26F
NEW MARKET*    FAIR      57  50  77 CALM      30.25F
STAUNTON*      FAIR      60  51  71 S9        30.29F
WAYNESBORO*    FAIR      57  49  73 E3        30.29S

$$

WVZ021-048>050-054>055-232300-
EASTERN WEST VIRGINIA PANHANDLE

CITY           SKY/WX    TMP DP  RH WIND       PRES   REMARKS
MARTINSBURG    CLOUDY    45  42  89 VRB3      30.31F
PETERSBURG*    PTSUNNY   49  45  87 NE5       30.27F

$$

VAZ036>039-050-232300-
CENTRAL FOOTHILLS

CITY           SKY/WX    TMP DP  RH WIND       PRES   REMARKS
CHARLOTTESVILL CLOUDY    51  45  79 S7        30.33F
CULPEPER*      CLOUDY    49  44  81 S7        30.35F
ORANGE*        CLOUDY    46  43  87 CALM      30.34F
GORDONSVILLE*  CLOUDY    48  47  93 S6        30.34F
WARRENTON*     CLOUDY    49  43  79 S3        30.34S

$$

VAZ055>057-232300-
NORTH AND CENTRAL PIEDMONT

CITY           SKY/WX    TMP DP  RH WIND       PRES   REMARKS
FREDERICKSBRG* CLOUDY    49  48  96 S6        30.35S
STAFFORD*      CLOUDY    49  48  97 CALM      30.39S

$$

NCZ024-NYZ072-PAZ021-071-VAZ022-071-232300-
OTHER REGIONAL OBSERVATIONS

CITY           SKY/WX    TMP DP  RH WIND       PRES   REMARKS
PHILADELPHIA   DRIZZLE   43  42  97 E5        30.37F FOG
PITTSBURGH     CLOUDY    63  57  81 SW9G18    30.16S
ROANOKE        CLOUDY    53  47  79 E8        30.35F
RICHMOND       CLOUDY    51  46  83 SW7       30.37F
RALEIGH        FAIR      67  55  65 NE8       30.35F

$$

ANZ530>537-232300-
MARINE OBSERVATIONS

STATION/POSITION TIME  TEMP    WIND        PRES
                       AIR SEA DIR/SP/G
                 (UTC) (F)     (DEG/KT/KT) (MB)
THOMAS PT LIGHT  2200   41 42     CALM       N/A
BALT KEY BRIDGE  2148   42     100/  2/  3 1028.6F
COVE POINT       2148   42     190/  7/  9 1028.5F
LEWISETTA        2148   45 49  140/  3/  3 1028.3F
SOLOMONS ISLAND  2148   44 43  130/  5/  7 1027.5F
PINEY POINT      2136          180/  7/  8   N/A

$$





USA.gov is the U.S. government's official web portal to all federal, state and local government web resources and services.